Flag for Germany Weather past 2 weeks in Radebeul, Saxony, Germany

Now
62 °F

Passing clouds.


Feels Like: 62 °F
Forecast: 56 / 70 °F
Wind: 6 mph from Southeast

Location: Dresden-Klotzsche

Current Time: Sep 17, 2014 at 10:11:47 AM

Latest Report: Sep 17, 2014 at 9:00 AM


Visibility: 9 mi

Pressure: 30.04 "Hg

Humidity: 80%

Dew point: 56 °F

Location of RadebeulLocation

Historic Weather in Radebeul — Graph

°F

Radebeul temperature yesterday

Maximum temperature yesterday: 76 °F (at 3:00 PM)
Minimum temperature yesterday: 61 °F (at 3:00 AM)
Average temperature yesterday: 67 °F

Past Weeks' High & Low Weather Summary

 TemperatureHumidityPressure
High80 °F (Sep 6, 3:00 PM)100% (Sep 15, 8:00 AM)30.25 "Hg (Sep 15, 8:00 AM)
Low52 °F (Sep 4, 4:00 AM)48% (Sep 16, 3:00 PM)29.86 "Hg (Sep 6, 4:00 PM)
Average62 °F85%30.05 "Hg
* Reported Sep 2 9:00 AM — Sep 17 9:00 AM, Radebeul, Weather by CustomWeather, © 2014

Note: Actual official high and low records may vary slightly from our data, if they occured in-between our weather recording intervals... More about our weather records

Advertising

Radebeul weather history for previous 24 hours

 ConditionsComfort  
Time TempWeatherWind HumidityBarometerVisibility
9:00 AM
Sep 17
62 °FPassing clouds.6 mph80%30.04 "Hg9 mi
8:00 AM59 °FPassing clouds.2 mph86%30.04 "Hg7 mi
7:00 AM59 °FPassing clouds.6 mph86%30.03 "Hg6 mi
6:00 AM59 °FClear.7 mph85%30.03 "Hg12 mi
4:00 AM59 °FClear.5 mph86%30.05 "Hg16 mi
3:00 AM59 °FClear.5 mph85%30.06 "Hg16 mi
2:00 AM59 °FClear.5 mph84%30.06 "Hg16 mi
1:00 AM59 °FClear.3 mph84%30.06 "Hg16 mi
12:00 AM60 °FPassing clouds.3 mph79%30.06 "Hg16 mi
11:00 PM
Sep 16
62 °FOvercast.3 mph75%30.06 "Hg14 mi
10:00 PM63 °FOvercast.3 mph75%30.06 "Hg12 mi
9:00 PM65 °FLight rain. Overcast.6 mph75%30.06 "Hg11 mi
8:00 PM68 °FOvercast.6 mph74%30.04 "Hg11 mi
7:00 PM70 °FPartly sunny.5 mph76%30.03 "Hg9 mi
6:00 PM70 °FThunderstorms. Partly sunny.5 mph80%30.03 "Hg10 mi
5:00 PM69 °FThundershowers. Low clouds.6 mph77%30.04 "Hg5 mi
4:00 PM72 °FPartly sunny.5 mph71%30.04 "Hg12 mi
3:00 PM76 °FPartly sunny.5 mph48%30.04 "Hg14 mi
2:00 PM74 °FScattered clouds.5 mph55%30.05 "Hg14 mi
1:00 PM74 °FScattered clouds.6 mph51%30.06 "Hg12 mi
12:00 PM72 °FScattered clouds.5 mph59%30.07 "Hg11 mi
11:00 AM70 °FPassing clouds.5 mph69%30.08 "Hg9 mi
10:00 AM67 °FScattered clouds.3 mph75%30.08 "Hg7 mi
Weather by CustomWeather, © 2014

See weather overviewHow to use our weather pages